Time,TemperatureF,DewpointF,PressureIn,WindDirection,WindDirectionDegrees,WindSpeedMPH,WindSpeedGustMPH,Humidity,HourlyPrecipIn,Conditions,Clouds,dailyrainin,SoftwareType,DateUTC
2013-08-29 00:08:00,64.3,63.0,29.97,WSW,252,0.0,4.0,95,0.14,,,0.07,weatherlink.com 1.10,2013-08-29 04:08:00,
2013-08-29 00:23:00,63.9,63.0,29.96,SW,218,0.0,0.0,95,0.17,,,0.11,weatherlink.com 1.10,2013-08-29 04:23:00,
2013-08-29 00:38:00,63.3,62.0,29.96,WSW,250,0.0,0.0,96,0.19,,,0.17,weatherlink.com 1.10,2013-08-29 04:38:00,
2013-08-29 00:53:00,63.0,62.0,29.95,WSW,249,0.0,0.0,96,0.19,,,0.18,weatherlink.com 1.10,2013-08-29 04:53:00,
2013-08-29 01:08:00,63.0,62.0,29.95,WSW,246,0.0,1.0,96,0.12,,,0.19,weatherlink.com 1.10,2013-08-29 05:08:00,
2013-08-29 01:23:00,63.0,62.0,29.95,SW,224,0.0,0.0,96,0.13,,,0.25,weatherlink.com 1.10,2013-08-29 05:23:00,
2013-08-29 01:38:00,62.9,62.0,29.94,SW,235,0.0,0.0,97,0.15,,,0.32,weatherlink.com 1.10,2013-08-29 05:38:00,
2013-08-29 01:53:00,62.9,62.0,29.93,SE,127,0.0,0.0,97,0.19,,,0.37,weatherlink.com 1.10,2013-08-29 05:53:00,
2013-08-29 02:08:00,62.8,62.0,29.93,WSW,257,0.0,0.0,97,0.20,,,0.40,weatherlink.com 1.10,2013-08-29 06:08:00,
2013-08-29 02:23:00,62.8,62.0,29.92,WSW,257,0.0,0.0,97,0.17,,,0.42,weatherlink.com 1.10,2013-08-29 06:23:00,
2013-08-29 02:38:00,62.7,62.0,29.92,WSW,257,0.0,0.0,97,0.11,,,0.43,weatherlink.com 1.10,2013-08-29 06:38:00,
2013-08-29 02:53:00,62.5,62.0,29.93,WSW,257,0.0,0.0,97,0.06,,,0.43,weatherlink.com 1.10,2013-08-29 06:53:00,
2013-08-29 03:08:00,62.8,62.0,29.93,ESE,105,0.0,0.0,97,0.03,,,0.43,weatherlink.com 1.10,2013-08-29 07:08:00,
2013-08-29 03:23:00,62.9,62.0,29.93,West,261,0.0,1.0,97,0.01,,,0.43,weatherlink.com 1.10,2013-08-29 07:23:00,
2013-08-29 03:38:00,62.6,62.0,29.94,WSW,238,0.0,1.0,97,0.00,,,0.43,weatherlink.com 1.10,2013-08-29 07:38:00,
2013-08-29 03:53:00,62.3,62.0,29.94,SW,228,0.0,1.0,97,0.00,,,0.43,weatherlink.com 1.10,2013-08-29 07:53:00,
2013-08-29 04:08:00,62.4,62.0,29.95,WSW,243,0.0,1.0,98,0.00,,,0.43,weatherlink.com 1.10,2013-08-29 08:08:00,
2013-08-29 04:23:00,62.6,62.0,29.96,NW,326,0.0,2.0,98,0.00,,,0.43,weatherlink.com 1.10,2013-08-29 08:23:00,
2013-08-29 04:38:00,62.7,62.0,29.97,East,91,0.0,4.0,98,0.00,,,0.43,weatherlink.com 1.10,2013-08-29 08:38:00,
2013-08-29 04:53:00,62.7,62.0,29.97,ENE,73,0.0,3.0,98,0.00,,,0.43,weatherlink.com 1.10,2013-08-29 08:53:00,
2013-08-29 05:08:00,62.8,62.0,29.97,West,279,0.0,0.0,98,0.00,,,0.43,weatherlink.com 1.10,2013-08-29 09:08:00,
2013-08-29 05:23:00,63.0,63.0,29.98,SE,131,0.0,5.0,98,0.00,,,0.43,weatherlink.com 1.10,2013-08-29 09:23:00,
2013-08-29 05:38:00,63.1,63.0,29.97,SSW,208,1.0,2.0,98,0.00,,,0.43,weatherlink.com 1.10,2013-08-29 09:38:00,
2013-08-29 05:53:00,63.2,63.0,29.98,East,84,1.0,2.0,98,0.00,,,0.43,weatherlink.com 1.10,2013-08-29 09:53:00,
2013-08-29 06:08:00,63.3,63.0,29.99,WSW,247,1.0,4.0,98,0.00,,,0.43,weatherlink.com 1.10,2013-08-29 10:08:00,
2013-08-29 06:23:00,63.4,63.0,29.99,ENE,77,0.0,2.0,98,0.00,,,0.43,weatherlink.com 1.10,2013-08-29 10:23:00,
2013-08-29 06:38:00,63.5,63.0,29.99,ESE,116,0.0,2.0,98,0.00,,,0.43,weatherlink.com 1.10,2013-08-29 10:38:00,
2013-08-29 06:53:00,63.5,63.0,30.00,SW,225,0.0,4.0,98,0.01,,,0.44,weatherlink.com 1.10,2013-08-29 10:53:00,
2013-08-29 07:08:00,63.6,63.0,30.01,South,173,0.0,4.0,98,0.01,,,0.44,weatherlink.com 1.10,2013-08-29 11:08:00,
2013-08-29 07:23:00,63.5,63.0,30.01,East,91,0.0,7.0,98,0.01,,,0.44,weatherlink.com 1.10,2013-08-29 11:23:00,
2013-08-29 07:38:00,63.3,63.0,30.02,NNW,337,1.0,10.0,98,0.01,,,0.44,weatherlink.com 1.10,2013-08-29 11:38:00,
2013-08-29 07:53:00,63.3,63.0,30.03,ESE,105,0.0,2.0,98,0.00,,,0.44,weatherlink.com 1.10,2013-08-29 11:53:00,
2013-08-29 08:08:00,63.3,63.0,30.02,West,259,0.0,5.0,98,0.00,,,0.44,weatherlink.com 1.10,2013-08-29 12:08:00,
2013-08-29 08:23:00,63.4,63.0,30.02,ESE,120,1.0,3.0,98,0.00,,,0.44,weatherlink.com 1.10,2013-08-29 12:23:00,
2013-08-29 08:38:00,63.5,63.0,30.02,ESE,109,0.0,3.0,97,0.00,,,0.44,weatherlink.com 1.10,2013-08-29 12:38:00,
2013-08-29 08:53:00,63.5,63.0,30.02,ESE,110,3.0,4.0,97,0.00,,,0.44,weatherlink.com 1.10,2013-08-29 12:53:00,
2013-08-29 09:08:00,63.7,63.0,30.03,NW,325,0.0,3.0,97,0.00,,,0.44,weatherlink.com 1.10,2013-08-29 13:08:00,
2013-08-29 09:23:00,63.6,63.0,30.03,East,98,2.0,3.0,97,0.00,,,0.44,weatherlink.com 1.10,2013-08-29 13:23:00,
2013-08-29 09:38:00,63.8,63.0,30.03,NE,41,0.0,5.0,97,0.01,,,0.45,weatherlink.com 1.10,2013-08-29 13:38:00,
2013-08-29 09:53:00,64.0,63.0,30.03,SW,231,1.0,4.0,97,0.01,,,0.45,weatherlink.com 1.10,2013-08-29 13:53:00,
2013-08-29 10:08:00,64.1,63.0,30.03,South,190,2.0,5.0,97,0.01,,,0.45,weatherlink.com 1.10,2013-08-29 14:08:00,
2013-08-29 10:23:00,63.7,63.0,30.04,North,359,1.0,5.0,97,0.01,,,0.45,weatherlink.com 1.10,2013-08-29 14:23:00,
2013-08-29 10:38:00,62.8,62.0,30.04,ESE,112,2.0,7.0,97,0.00,,,0.45,weatherlink.com 1.10,2013-08-29 14:38:00,
2013-08-29 10:53:00,62.7,62.0,30.04,ESE,114,1.0,5.0,97,0.01,,,0.46,weatherlink.com 1.10,2013-08-29 14:53:00,
2013-08-29 11:09:00,62.4,62.0,30.05,NE,52,2.0,3.0,97,0.01,,,0.46,weatherlink.com 1.10,2013-08-29 15:09:00,
2013-08-29 11:24:00,61.8,61.0,30.05,WSW,240,0.0,6.0,97,0.01,,,0.46,weatherlink.com 1.10,2013-08-29 15:24:00,
2013-08-29 11:39:00,61.7,61.0,30.05,ESE,110,4.0,5.0,97,0.01,,,0.46,weatherlink.com 1.10,2013-08-29 15:39:00,
2013-08-29 11:54:00,61.5,61.0,30.05,NNW,333,2.0,6.0,97,0.00,,,0.46,weatherlink.com 1.10,2013-08-29 15:54:00,
2013-08-29 12:09:00,61.4,61.0,30.04,WNW,298,0.0,3.0,97,0.00,,,0.46,weatherlink.com 1.10,2013-08-29 16:09:00,
2013-08-29 12:24:00,61.6,61.0,30.05,ESE,111,0.0,3.0,97,0.00,,,0.46,weatherlink.com 1.10,2013-08-29 16:24:00,
2013-08-29 12:39:00,61.4,61.0,30.05,WNW,288,0.0,4.0,97,0.00,,,0.46,weatherlink.com 1.10,2013-08-29 16:39:00,
2013-08-29 12:54:00,61.3,61.0,30.04,SSW,203,1.0,4.0,97,0.00,,,0.46,weatherlink.com 1.10,2013-08-29 16:54:00,
2013-08-29 13:09:00,61.2,60.0,30.05,WNW,287,0.0,4.0,97,0.00,,,0.46,weatherlink.com 1.10,2013-08-29 17:09:00,
2013-08-29 13:24:00,61.3,61.0,30.05,ESE,107,1.0,7.0,97,0.00,,,0.46,weatherlink.com 1.10,2013-08-29 17:24:00,
2013-08-29 13:39:00,61.3,61.0,30.05,East,98,1.0,2.0,97,0.00,,,0.46,weatherlink.com 1.10,2013-08-29 17:39:00,
2013-08-29 13:54:00,61.3,61.0,30.04,SE,139,1.0,3.0,97,0.00,,,0.46,weatherlink.com 1.10,2013-08-29 17:54:00,
2013-08-29 14:09:00,61.3,61.0,30.04,ESE,105,0.0,2.0,97,0.00,,,0.46,weatherlink.com 1.10,2013-08-29 18:09:00,
2013-08-29 14:24:00,61.2,60.0,30.04,SSE,155,2.0,4.0,97,0.00,,,0.46,weatherlink.com 1.10,2013-08-29 18:24:00,
2013-08-29 14:39:00,61.1,60.0,30.04,ESE,117,0.0,4.0,97,0.00,,,0.46,weatherlink.com 1.10,2013-08-29 18:39:00,
2013-08-29 14:54:00,60.9,60.0,30.04,SSW,193,1.0,4.0,97,0.01,,,0.47,weatherlink.com 1.10,2013-08-29 18:54:00,
2013-08-29 15:09:00,60.8,60.0,30.04,SE,125,1.0,4.0,97,0.01,,,0.47,weatherlink.com 1.10,2013-08-29 19:09:00,
2013-08-29 15:24:00,60.7,60.0,30.04,ENE,68,0.0,3.0,97,0.01,,,0.47,weatherlink.com 1.10,2013-08-29 19:24:00,
2013-08-29 15:39:00,60.7,60.0,30.04,SSW,204,0.0,4.0,97,0.01,,,0.47,weatherlink.com 1.10,2013-08-29 19:39:00,
2013-08-29 15:54:00,60.8,60.0,30.04,East,98,0.0,4.0,97,0.00,,,0.47,weatherlink.com 1.10,2013-08-29 19:54:00,
2013-08-29 16:09:00,60.8,60.0,30.04,East,93,4.0,4.0,97,0.00,,,0.47,weatherlink.com 1.10,2013-08-29 20:09:00,
2013-08-29 16:24:00,60.6,60.0,30.04,ENE,75,2.0,5.0,97,0.00,,,0.47,weatherlink.com 1.10,2013-08-29 20:24:00,
2013-08-29 16:39:00,60.6,60.0,30.04,West,267,0.0,2.0,97,0.00,,,0.47,weatherlink.com 1.10,2013-08-29 20:39:00,
2013-08-29 16:54:00,60.3,60.0,30.04,ENE,77,0.0,6.0,97,0.00,,,0.47,weatherlink.com 1.10,2013-08-29 20:54:00,
2013-08-29 17:09:00,60.3,60.0,30.04,SE,134,1.0,5.0,97,0.00,,,0.47,weatherlink.com 1.10,2013-08-29 21:09:00,
2013-08-29 17:24:00,60.2,59.0,30.04,East,96,1.0,3.0,97,0.00,,,0.47,weatherlink.com 1.10,2013-08-29 21:24:00,
2013-08-29 17:39:00,60.3,60.0,30.04,ESE,102,0.0,2.0,97,0.00,,,0.47,weatherlink.com 1.10,2013-08-29 21:39:00,
2013-08-29 18:09:00,60.7,60.0,30.04,ESE,118,0.0,3.0,97,0.00,,,0.47,weatherlink.com 1.10,2013-08-29 22:09:00,
2013-08-29 18:24:00,60.6,60.0,30.03,ESE,105,0.0,1.0,97,0.00,,,0.47,weatherlink.com 1.10,2013-08-29 22:24:00,
2013-08-29 18:39:00,60.7,60.0,30.03,ESE,118,0.0,0.0,97,0.00,,,0.47,weatherlink.com 1.10,2013-08-29 22:39:00,
2013-08-29 18:54:00,60.7,60.0,30.03,ESE,119,0.0,0.0,97,0.00,,,0.47,weatherlink.com 1.10,2013-08-29 22:54:00,
2013-08-29 19:09:00,60.5,60.0,30.03,ESE,105,0.0,1.0,97,0.00,,,0.47,weatherlink.com 1.10,2013-08-29 23:09:00,
2013-08-29 19:24:00,60.3,60.0,30.04,ESE,104,0.0,0.0,97,0.00,,,0.47,weatherlink.com 1.10,2013-08-29 23:24:00,
2013-08-29 19:39:00,60.1,59.0,30.04,ESE,105,0.0,0.0,97,0.00,,,0.47,weatherlink.com 1.10,2013-08-29 23:39:00,
2013-08-29 19:54:00,60.0,59.0,30.04,ESE,104,0.0,0.0,97,0.00,,,0.47,weatherlink.com 1.10,2013-08-29 23:54:00,
2013-08-29 20:09:00,60.0,59.0,30.04,ESE,105,0.0,0.0,97,0.00,,,0.47,weatherlink.com 1.10,2013-08-30 00:09:00,
2013-08-29 20:24:00,59.8,59.0,30.04,ESE,110,0.0,0.0,97,0.00,,,0.47,weatherlink.com 1.10,2013-08-30 00:24:00,
2013-08-29 20:39:00,59.8,59.0,30.05,ESE,110,0.0,0.0,97,0.00,,,0.47,weatherlink.com 1.10,2013-08-30 00:39:00,
2013-08-29 20:54:00,59.8,59.0,30.05,ESE,110,0.0,0.0,97,0.00,,,0.47,weatherlink.com 1.10,2013-08-30 00:54:00,
2013-08-29 21:09:00,59.8,59.0,30.05,ESE,110,0.0,0.0,98,0.00,,,0.47,weatherlink.com 1.10,2013-08-30 01:09:00,
2013-08-29 21:24:00,59.7,59.0,30.05,ESE,110,0.0,0.0,97,0.00,,,0.47,weatherlink.com 1.10,2013-08-30 01:24:00,
2013-08-29 21:39:00,59.5,59.0,30.05,ESE,110,0.0,0.0,97,0.00,,,0.47,weatherlink.com 1.10,2013-08-30 01:39:00,
2013-08-29 21:54:00,59.5,59.0,30.05,ESE,110,0.0,0.0,98,0.00,,,0.47,weatherlink.com 1.10,2013-08-30 01:54:00,
2013-08-29 22:09:00,59.5,59.0,30.04,ESE,110,0.0,0.0,98,0.00,,,0.47,weatherlink.com 1.10,2013-08-30 02:09:00,
2013-08-29 22:24:00,59.5,59.0,30.04,ESE,110,0.0,0.0,98,0.00,,,0.47,weatherlink.com 1.10,2013-08-30 02:24:00,
2013-08-29 22:39:00,59.4,59.0,30.04,ESE,110,0.0,0.0,98,0.00,,,0.47,weatherlink.com 1.10,2013-08-30 02:39:00,
2013-08-29 22:54:00,59.3,59.0,30.03,ESE,110,0.0,0.0,98,0.00,,,0.47,weatherlink.com 1.10,2013-08-30 02:54:00,
2013-08-29 23:09:00,59.2,59.0,30.03,ESE,110,0.0,0.0,98,0.00,,,0.47,weatherlink.com 1.10,2013-08-30 03:09:00,
2013-08-29 23:24:00,59.0,58.0,30.02,SW,228,0.0,0.0,97,0.00,,,0.47,weatherlink.com 1.10,2013-08-30 03:24:00,
2013-08-29 23:39:00,58.7,58.0,30.01,West,277,0.0,2.0,97,0.00,,,0.47,weatherlink.com 1.10,2013-08-30 03:39:00,
2013-08-29 23:54:00,58.5,58.0,30.00,West,277,0.0,0.0,97,0.00,,,0.47,weatherlink.com 1.10,2013-08-30 03:54:00,